Location: Igon
(43.1667°N, 0.2333°W)
Time: 15:21:59
(UTC+00:00)

ATLAS 2AS CENTAUR R/B - Pass Details

Date: 29 November 2020
Orbit: 943 x 1268 km, 63.7° (Epoch: 22 January)

Event Time Altitude Azimuth Distance (km) Brightness Sun altitude
Exits shadow 04:15:37 36° 195° (SSW) 1,898 3.8 -31.4°
Maximum altitude 04:19:13 71° 121° (ESE) 1,330 3.2 -30.7°
Drops below altitude 10° 04:27:03 10° 39° (NE) 3,232 5.6 -29.3°
Sets 04:29:49 0° 38° (NE) 4,178 6.2 -28.8°
